Location: Newark
(45.2500°N, 7.5833°E)
Time: 06:39:48
(UTC+00:00)

A-11 Canister half - Pass Details

Date: 31 January 2020
Orbit: 1524 x 1684 km, 47.3° (Epoch: 27 February)

Event Time Altitude Azimuth Distance (km) Brightness Sun altitude
Rises 22:22:36 0° 293° (WNW) 4,744 12.0 -57.4°
Reaches altitude 10° 22:25:59 10° 285° (WNW) 3,779 11.3 -57.8°
Enters shadow 22:26:57 13° 281° (WNW) 3,524 11.1 -57.9°
Maximum altitude 22:34:15 34° 225° (SW) 2,421 - -58.6°
Drops below altitude 10° 22:42:45 10° 165° (SSE) 3,876 - -59.4°
Sets 22:46:18 0° 157° (SSE) 4,881 - -59.7°
